Theta_e
325 333 344 348 347 349 349 348 347 347 348 349 348 347 346 345 344 345 345 345 346 346 348 347 345 345 346 346 346 346 346 345 344 342 342 343 344 344 347 349 348 347 351
330 334 344 348 347 347 348 347 347 349 348 347 347 346 344 343 341 340 340 341 343 345 346 343 341 341 340 342 344 344 342 341 342 341 341 338 342 344 343 349 350 349 351
330 333 336 341 348 348 348 348 348 347 347 346 344 341 339 339 337 337 337 337 337 337 341 341 338 336 335 336 339 339 337 337 336 336 337 331 332 352 350 351 351 349 349
329 331 332 339 346 347 347 347 347 346 345 344 341 340 338 338 337 334 334 335 335 336 337 335 333 331 331 332 332 333 332 331 329 328 325 329 331 344 348 346 346 346 347
324 327 331 340 342 342 342 342 343 342 342 341 338 337 336 333 331 328 328 327 331 332 330 327 325 323 323 323 325 324 323 322 319 313 312 320 325 337 346 345 344 344 344
320 323 332 339 340 340 340 340 338 338 339 337 336 333 331 328 326 325 324 324 326 324 323 322 320 320 320 319 319 319 320 319 315 306 309 319 324 341 342 345 345 345 344
316 320 326 337 336 337 338 337 336 336 335 333 332 329 326 324 323 322 322 322 321 321 320 319 318 319 318 319 318 317 316 312 303 304 308 314 318 340 343 343 342 341 341
315 317 321 330 333 334 336 335 335 334 332 329 327 324 323 322 321 320 320 320 320 320 319 319 318 317 318 316 315 314 313 310 301 300 302 309 322 332 336 337 339 341 340
313 314 315 319 324 329 331 332 334 331 328 325 323 322 321 319 319 318 318 318 319 318 318 315 315 314 314 314 313 311 309 308 297 299 302 307 319 325 327 327 328 330 333
308 310 310 311 315 315 318 325 327 327 325 322 320 319 318 316 316 315 318 317 317 316 315 312 311 310 310 309 308 307 305 303 296 297 298 306 316 321 323 323 323 324 325
305 306 306 307 307 308 310 315 320 322 322 320 318 316 311 301 303 304 312 315 313 312 312 309 307 305 303 304 304 303 300 294 294 294 296 308 313 317 319 320 320 321 321
302 303 303 303 303 303 308 308 307 309 307 305 303 301 297 296 298 302 307 310 309 308 308 306 304 301 296 292 292 296 292 292 292 293 294 305 309 313 316 318 319 319 320
303 302 302 302 300 300 302 302 301 300 299 298 297 295 294 295 297 295 294 292 292 295 291 292 291 290 290 290 290 290 290 290 290 291 295 302 306 310 312 314 316 318 319
298 300 300 300 299 297 298 300 298 297 295 295 294 295 293 293 291 291 290 289 289 289 288 288 288 289 289 290 290 289 289 289 289 290 292 299 303 306 309 311 313 316 318
295 298 298 298 298 297 296 297 295 295 296 294 293 294 293 291 290 290 289 288 287 288 287 287 287 287 287 289 288 288 288 288 289 289 290 296 300 304 307 310 313 314 315
295 295 297 297 298 297 295 296 296 295 295 293 292 293 292 291 289 289 288 288 287 287 287 287 286 286 286 287 287 288 288 288 288 288 288 289 298 301 305 308 310 312 313
296 295 294 296 296 296 295 294 294 294 295 293 292 292 292 291 289 288 288 287 286 286 286 286 286 285 285 286 285 287 287 288 288 287 288 289 290 297 303 306 309 310 311
296 294 294 297 295 295 295 294 294 294 294 294 291 290 291 290 289 287 287 286 286 286 285 285 284 284 284 284 284 285 285 286 287 287 288 289 290 292 297 306 307 309 309
297 296 293 295 295 295 294 294 293 293 293 293 290 290 289 289 288 287 286 286 286 285 284 285 283 283 282 283 284 284 284 284 285 287 286 287 288 291 291 299 299 299 303
297 296 295 294 295 294 294 292 291 291 291 290 291 290 289 289 288 286 285 285 285 284 284 283 283 283 282 282 284 283 283 284 284 285 284 286 287 289 289 288 288 289 298
295 295 294 293 293 294 292 290 291 291 290 290 291 290 288 288 287 286 285 284 284 283 283 283 282 282 282 281 280 281 282 284 284 283 283 284 284 286 286 286 287 288 289
295 295 295 293 293 293 294 294 292 293 289 291 290 289 288 287 286 285 285 284 283 282 282 282 282 281 281 281 279 279 278 280 283 283 283 284 282 284 284 285 285 287 286
294 294 294 293 293 294 294 292 286 286 285 285 286 287 287 287 286 285 284 284 283 282 282 281 281 281 280 280 280 279 277 277 278 281 282 282 282 282 283 283 284 285 285
294 294 294 293 292 293 293 291 290 290 289 288 290 288 287 286 285 285 284 283 283 282 281 281 282 281 280 279 280 282 280 279 277 276 280 280 281 281 281 282 282 283 284
292 292 292 292 291 292 292 292 291 290 291 287 286 285 286 285 285 284 284 282 282 282 281 281 281 281 280 280 280 279 279 278 278 277 276 278 279 280 281 282 282 282 283
289 289 290 290 290 291 291 291 290 290 286 284 284 285 285 285 284 283 283 282 281 281 281 281 281 280 280 280 280 280 279 278 277 277 276 276 276 278 280 280 280 281 282
Wind_Speed
6 7 10 12 13 12 14 13 13 12 12 13 13 12 12 10 10 9 9 7 6 8 9 11 10 10 11 10 9 10 10 10 11 12 11 11 9 5 2 5 6 5 7
9 7 10 12 14 14 12 13 12 14 14 12 11 12 12 11 9 9 8 6 6 8 12 10 9 11 9 10 11 11 11 11 13 13 12 11 12 3 2 6 6 7 9
9 6 8 12 12 13 14 15 15 13 12 12 10 8 9 9 8 8 8 7 6 5 8 11 10 9 7 8 11 12 11 12 14 14 13 6 8 8 8 8 8 9 8
8 5 7 15 11 15 16 16 14 14 14 13 11 10 8 9 9 8 9 8 7 7 9 9 9 8 8 9 8 10 12 13 13 14 7 7 8 11 7 8 8 9 8
7 6 6 10 13 12 11 11 11 11 12 14 12 10 10 10 9 8 8 8 9 10 9 9 8 8 8 9 10 11 12 13 13 10 7 6 6 9 4 6 8 8 9
7 6 9 12 15 13 12 12 13 12 11 12 12 12 12 12 11 10 9 9 10 9 9 9 9 9 10 10 11 12 13 14 12 7 6 7 6 10 7 5 8 8 9
7 6 6 11 15 14 13 15 15 15 14 15 15 14 14 13 12 12 11 11 10 10 10 10 9 10 11 12 12 13 14 14 7 6 6 7 8 13 12 8 8 8 9
9 7 6 8 10 12 14 15 15 16 15 15 14 14 14 13 13 12 12 12 11 11 11 11 11 10 11 11 12 13 14 14 8 6 6 6 14 14 13 14 15 13 12
6 6 6 6 8 10 11 13 14 17 16 15 15 14 14 13 13 12 11 12 11 11 11 11 11 11 11 12 12 13 13 14 7 5 7 5 13 12 12 14 14 14 14
6 5 6 5 5 5 5 10 11 14 14 15 15 14 12 11 11 12 8 12 12 11 11 11 11 11 11 11 11 11 12 12 6 5 4 6 13 12 12 13 13 13 13
6 7 7 7 6 5 4 5 8 11 12 13 11 12 9 4 6 6 7 12 12 12 11 11 11 11 10 10 11 11 10 3 5 4 3 13 13 12 12 11 12 11 11
10 9 8 7 7 6 4 5 5 4 3 4 5 6 4 5 5 5 7 11 12 11 11 11 10 9 7 4 4 7 3 4 4 4 3 12 12 11 11 11 11 11 11
11 7 10 9 7 7 5 4 3 2 3 3 6 6 5 4 3 3 3 3 3 7 3 5 4 4 4 3 3 4 4 4 3 2 5 11 11 11 10 10 10 11 11
13 14 11 10 9 7 5 5 5 4 4 4 5 7 5 3 4 4 3 4 3 3 5 3 3 3 4 4 4 4 5 4 3 3 5 11 11 10 9 8 8 8 10
13 14 14 13 12 11 8 5 6 6 6 5 5 6 5 5 5 4 4 3 3 3 4 3 3 4 5 5 4 4 4 4 5 3 3 9 9 9 8 6 7 8 9
14 16 14 16 14 12 11 11 9 7 6 6 5 6 7 5 5 4 4 4 3 3 3 3 3 3 3 3 4 4 4 3 4 5 3 4 9 8 8 8 7 9 9
16 13 18 17 15 15 15 11 9 8 7 7 7 7 7 6 6 6 5 4 4 4 5 4 3 3 3 3 4 4 4 5 4 4 3 3 4 7 8 8 9 9 9
13 17 16 15 18 17 15 11 9 8 8 7 6 5 8 7 7 6 5 5 4 4 4 4 3 2 2 3 3 4 4 4 4 5 4 4 3 3 7 12 12 11 12
18 16 17 18 20 20 15 11 9 9 8 7 5 6 8 8 8 7 5 5 5 4 3 3 2 2 2 3 4 4 4 4 3 3 5 6 5 5 4 12 14 14 14
16 16 16 15 17 17 11 7 5 6 6 5 8 8 9 8 8 7 5 6 5 4 4 3 3 1 2 1 2 3 3 3 3 4 4 4 6 6 6 7 6 6 13
12 15 18 19 18 15 11 11 9 13 9 8 8 10 11 9 9 8 5 6 5 5 5 5 3 3 3 3 2 3 3 4 4 5 3 4 5 5 5 5 3 3 4
18 19 18 19 18 17 13 12 6 10 5 7 6 8 10 10 10 9 9 7 7 5 6 5 4 3 2 3 3 2 4 4 3 3 3 3 5 4 5 4 4 4 3
14 17 19 20 19 17 15 9 4 6 4 3 5 6 8 10 9 9 8 7 7 5 5 5 5 6 4 1 2 3 2 3 2 2 1 1 4 4 4 5 6 6 5
15 12 13 17 19 18 19 16 17 12 11 8 9 8 8 10 10 9 8 7 7 5 6 5 5 4 5 4 1 2 4 3 2 4 3 3 2 4 1 3 4 4 3
10 13 15 15 15 17 18 18 16 15 10 5 6 11 11 9 10 10 10 8 7 4 5 6 6 5 3 4 4 3 2 2 2 3 3 3 3 2 2 4 5 4 3
6 8 11 17 17 17 18 17 20 19 11 9 10 10 9 8 8 10 11 10 8 7 7 5 5 6 5 4 3 4 4 4 4 4 3 3 3 4 4 4 4 3 3
Wind_Direction
221 190 183 168 173 169 157 158 156 155 147 136 130 123 113 101 93 84 80 73 102 103 85 71 62 49 48 48 48 41 33 20 13 11 6 355 347 325 347 58 48 38 32
143 184 176 162 173 173 165 162 167 158 143 140 135 125 116 109 109 108 108 96 76 88 76 74 64 47 39 37 34 40 27 18 7 4 360 3 357 102 109 81 62 47 31
150 172 152 171 150 162 169 166 155 148 147 139 128 136 126 116 112 108 104 100 97 87 66 66 64 50 43 38 27 26 19 18 11 9 2 1 351 66 82 71 57 49 36
151 150 166 173 166 158 155 152 151 151 143 136 120 108 112 106 99 107 107 102 105 97 81 72 61 52 40 35 30 23 18 19 12 16 4 3 355 359 58 51 45 35 28
151 152 163 178 176 159 153 148 157 134 129 121 121 134 125 126 120 111 104 95 97 90 85 82 73 62 49 40 32 25 19 12 13 16 6 355 356 353 17 53 41 31 19
152 154 172 182 181 171 162 150 152 165 144 134 143 147 141 138 131 126 119 112 103 95 88 76 66 61 57 54 41 32 30 24 23 14 8 8 352 357 3 61 68 39 24
155 161 168 182 184 181 173 176 175 174 161 159 157 153 148 146 140 133 125 117 109 103 92 85 79 73 69 57 48 44 39 34 27 18 20 11 350 14 32 49 44 37 21
155 163 169 172 169 178 176 173 176 170 164 163 159 157 150 148 143 136 131 124 117 107 100 93 85 76 68 60 53 45 40 42 31 19 21 11 12 17 23 22 21 19 17
154 158 165 163 169 176 173 172 173 167 165 165 163 159 153 147 142 133 130 121 112 106 103 95 89 80 72 63 54 48 41 42 41 22 16 360 6 12 16 20 14 7 0
169 174 173 169 163 166 168 170 172 166 168 168 162 154 144 145 139 133 125 121 117 113 104 95 87 81 77 70 64 53 44 38 34 27 15 4 10 11 13 13 11 8 4
200 191 179 175 172 165 166 172 165 164 166 162 152 146 124 113 119 118 138 124 120 114 105 94 85 79 72 64 59 54 47 33 37 25 9 12 9 7 9 9 10 7 5
206 202 186 177 175 167 163 160 148 151 145 138 132 126 131 139 145 135 119 123 117 112 110 101 91 79 70 56 41 48 47 35 35 20 7 9 6 5 5 4 4 4 3
200 196 194 184 174 170 172 160 154 146 148 153 157 156 158 151 132 122 108 106 110 108 84 83 82 77 70 57 48 40 38 32 23 25 4 7 5 3 2 0 359 2 5
191 197 186 184 180 183 165 173 167 164 169 176 180 168 154 153 154 147 147 148 136 140 121 115 94 87 62 58 52 32 19 24 15 0 0 1 0 1 358 4 4 6 18
204 195 194 182 186 185 179 173 175 183 182 183 179 175 163 163 170 159 163 159 151 147 127 116 89 60 43 27 26 29 21 11 3 10 350 359 1 9 7 15 29 26 28
203 201 188 192 190 181 189 185 187 183 185 180 180 183 177 165 163 164 157 177 151 138 121 116 109 82 53 17 12 6 2 19 16 4 353 349 9 11 19 27 41 39 40
210 194 193 190 186 187 191 188 185 185 182 188 188 180 174 168 168 160 163 176 175 149 135 113 89 75 48 5 5 349 1 4 6 19 358 352 357 2 24 41 37 39 38
200 197 189 190 189 190 191 186 186 183 183 188 182 174 175 172 170 164 167 185 167 155 141 114 97 78 51 24 337 339 349 6 10 19 13 19 8 14 22 54 50 44 41
201 197 193 191 190 191 187 181 182 180 187 186 171 178 183 177 173 167 171 176 167 147 131 139 94 129 58 353 332 340 352 5 26 35 24 13 24 38 37 51 38 25 19
197 196 195 193 192 187 175 165 160 170 185 174 187 189 179 181 172 168 168 167 159 146 152 152 135 101 128 341 322 346 7 15 49 56 23 33 49 56 48 37 20 1 17
186 188 191 186 189 175 176 175 187 196 191 192 192 184 181 179 174 170 168 165 165 168 171 162 144 121 34 6 29 12 9 44 87 29 57 33 52 52 43 30 20 7 0
192 196 193 193 184 187 185 190 188 185 192 196 184 185 184 178 175 173 173 178 172 159 169 170 149 121 90 15 118 104 14 345 8 36 20 64 50 22 18 16 356 354 353
201 192 193 189 185 186 181 159 85 83 65 125 188 191 192 180 176 174 175 171 173 169 178 170 162 150 142 359 27 133 118 218 325 330 343 34 34 24 2 351 342 334 338
215 195 191 187 180 182 173 173 180 189 188 194 193 192 181 178 179 175 173 172 179 179 175 170 170 157 134 156 77 53 47 107 165 325 346 340 355 309 270 288 283 283 315
190 189 178 177 184 182 183 184 184 190 190 158 164 164 177 181 181 177 173 168 172 182 179 173 159 158 159 146 155 158 122 94 90 141 264 307 305 226 273 260 279 292 284
182 167 180 173 178 180 183 190 196 195 168 155 162 175 186 187 184 182 175 174 168 168 176 177 164 168 174 170 166 166 162 161 170 161 211 254 229 256 265 251 247 258 268